This is the latest recevied weather packets stored in our database for station/object OE5HCE. If no packets are shown the sender has not sent any weather packets the latest 10 day(s).
| Time | Temp. | Humidity | Pressure | Rain* | Wind** | Luminosity | Snow |
|---|---|---|---|---|---|---|---|
| 1777570254 | 12.78° C | 35% | 1028.9 hPa | 0 mm | - | 46 W/m² | - |
| 1777569350 | 13.89° C | 34% | 1028.9 hPa | 0 mm | - | 65 W/m² | - |
| 1777568449 | 14.44° C | 32% | 1028.8 hPa | 0 mm | - | 98 W/m² | - |
| 1777567548 | 15° C | 33% | 1028.8 hPa | 0 mm | - | 179 W/m² | - |
| 1777566648 | 15.56° C | 31% | 1028.8 hPa | 0 mm | - | 223 W/m² | - |
| 1777565758 | 15.56° C | 31% | 1028.8 hPa | 0 mm | - | 269 W/m² | - |
| 1777564846 | 16.11° C | 32% | 1028.9 hPa | 0 mm | - | 311 W/m² | - |
| 1777563949 | 16.11° C | 31% | 1029 hPa | 0 mm | - | 352 W/m² | - |
| 1777563044 | 15.56° C | 32% | 1029 hPa | 0 mm | - | 396 W/m² | - |
| 1777562156 | 15.56° C | 32% | 1029.2 hPa | 0 mm | - | 434 W/m² | - |
| 1777561248 | 15.56° C | 33% | 1029.2 hPa | 0 mm | - | 475 W/m² | - |
| 1777560341 | 15° C | 33% | 1029.4 hPa | 0 mm | - | 515 W/m² | - |
| 1777559440 | 15.56° C | 32% | 1029.4 hPa | 0 mm | - | 550 W/m² | - |
| 1777558539 | 15.56° C | 31% | 1029.5 hPa | 0 mm | - | 587 W/m² | - |
| 1777557639 | 15° C | 33% | 1029.6 hPa | 0 mm | - | 621 W/m² | - |
| 1777556736 | 14.44° C | 33% | 1029.7 hPa | 0 mm | - | 652 W/m² | - |
| 1777555844 | 14.44° C | 32% | 1029.8 hPa | 0 mm | - | 675 W/m² | - |
| 1777554934 | 14.44° C | 33% | 1029.8 hPa | 0 mm | - | 524 W/m² | - |
| 1777554032 | 14.44° C | 34% | 1030 hPa | 0 mm | - | 726 W/m² | - |
| 1777553131 | 13.89° C | 33% | 1030.1 hPa | 0 mm | - | 749 W/m² | - |
| 1777552230 | 13.33° C | 35% | 1030.1 hPa | 0 mm | - | 770 W/m² | - |
| 1777551333 | 13.33° C | 34% | 1030.3 hPa | 0 mm | - | 782 W/m² | - |
| 1777550438 | 13.33° C | 32% | 1030.5 hPa | 0 mm | - | 754 W/m² | - |
| 1777549527 | 12.78° C | 33% | 1030.6 hPa | 0 mm | - | 805 W/m² | - |
| 1777548684 | 12.78° C | 33% | 1030.7 hPa | 0 mm | - | 810 W/m² | - |
* Rain latest hour (hover to see other rain measurements)
** Current wind speed in m/s (hover to see current wind gust speed)